"Pseudo-MPEC" for C0EA6R5

Created 2022 Nov 28 16:22:05 UT using Find_Orb

Click here for an explanation of pseudo-MPECs

 
 Astrometry: 
     C0EA6R5* C2022 11 24]nBQ?AstrometrybowCHNws^mBC)aBH9=McsQ=J`+7T4EvOUCrRMV00
     C0EA6R5  C2022 11 24YtOLk#50P@M!^'sx21@yyBpPL%MxWT1+*^varedacted;M,7HYl,V00
     C0EA6R5  C2022 11 24:f_Q_F*9CioYmjqXuULDXSFlFR`fkg=+3GDVg%5]L.+Uc!'Yy:3EV00
     C0EA6R5  C2022 11 24,3RlyC3pNGqLWsm7cQci_HD#J\I@II6!Lix`_'-1S*GUGRs6kA5nV00
     C0EA6R5 mC2022 11 25E;+I5Tr;kMg4KMtR4+`-iak9i'*1pS0e8Yl+;7X]L*0\y_B,()HsV00
     C0EA6R5 mC2022 11 25vlUclick[#K4g7LGkrR-d1jjoTDQS]N9?19..HieMWR]S0/`qsK;V00
     C0EA6R5 mC2022 11 25=@oaK#DSpdefWMtYp9,'F%y5M9`!d!^J0M$cxB(dS/_2%Rs`xx$xV00
     C0EA6R5 mC2022 11 253R7sSVNK:xQJL0h$RJh`Z'r9ZkXi$0VV)cXW5L0@Q6*?:7C(w#doV00
     C0EA6R5 KC2022 11 26=D;=V*uA;Rwxohere/0*[@%2V/+JFORCfor,mI:.@KlF-HC`=Rp3H21
     C0EA6R5 KC2022 11 266[Fj+pk4hAs[Dgie8\[^C)[)3yV!i7Uexplanationi\`9MO;piQH21
     C0EA6R5 1C2022 11 27.00495 05 12 10.64 +11 54 04.5    ~BR7q 21.0 VXNEOCP033
     C0EA6R5 1C2022 11 27.00853 05 12 10.27 +11 53 58.7    ~BR7q 20.8 VXNEOCP033
     C0EA6R5 1C2022 11 27.01211 05 12 09.92 +11 53 53.6    ~BR7q 20.9 VXNEOCP033
     C0EA6R5 KC2022 11 27.29450 05 11 43.16 +11 46 31.4    ~BR8M 21.3 RoNEOCP691
     C0EA6R5 KC2022 11 27.30663 05 11 41.96 +11 46 11.9    ~BR8M 21.4 RoNEOCP691
     C0EA6R5 KC2022 11 27.31895 05 11 40.74 +11 45 52.6    ~BR8M 21.2 RoNEOCP691
     C0EA6R5 KC2022 11 28.18591 05 10 18.57 +11 23 19.3    ~BS5M 22.1 RoNEOCP291
     C0EA6R5 KC2022 11 28.19312 05 10 17.86 +11 23 07.9    ~BS5M 22.6 RoNEOCP291
     C0EA6R5 KC2022 11 28.20034 05 10 17.15 +11 22 57.6    ~BS5M 21.9 RoNEOCP291

Station data:
(033) Karl Schwarzschild Observatory, Tautenburg  (N50.980137 E11.711240)
   Germany.  Observers S. Melnikov, C. Hoegner, B. Stecklum. Measurer B.
   Stecklum. 1.34-m f/3 Schmidt + CCD.
(291) LPL/Spacewatch II  (N31.961669 W111.599905)  US/Arizona.  Observers J.
   V. Scotti, R. S. McMillan. 1.8-m f/2.7 reflector + CCD.
(691) Steward Observatory, Kitt Peak - Spacewatch  (N31.962174 W111.600327)
   US/Arizona.  Observer J. V. Scotti. 0.9-m f/3 reflector + CCD.
(H21) Astronomical Research Observatory, Westfield  (N39.483054 W87.968270)
   US/Illinois.  Observer R. Holmes. Measurers S. Foglia, L. Buzzi, T.
   Linder, R. Holmes. 0.76-m f/3.0 astrograph + CCD0.81-m f/4.0 astrograph +
   CCD0.61-m f/4.5 astrograph + CCD0.40-m f/5.32 astrograph + CCD.
(V00) Kitt Peak-Bok  (N31.963125 W111.600190)  US/Arizona.  Observers T. A.
   Pruyne, B. M. Africano, E. J. Christensen, G. A. Farneth, D. C. Fuls, A.
   R. Gibbs, A. D. Grauer, H. Gröller, J. A. Johnson, R. A. Kowalski, S. M.
   Larson, G. J. Leonard, D. Rankin, R. L. Seaman, F. C. Shelly, K. W.
   Wierzchoś. 2.25-m reflector + CCD.

Orbital elements:  C0EA6R5
   Perihelion 2022 Jul 26.26783 +/- 0.457 TT =  6:25:40 (JD 2459786.76783)
Epoch 2022 Nov 28.0 TT = JDT 2459911.5   Earth MOID: 0.4518   Ma: 0.0975
M  30.12254690 +/- 0.6              (J2000 ecliptic)          AutoNEOCP
n   0.24149781 +/- 0.00602          Peri.  107.44185 +/- 0.10
a   2.55384135 +/- 0.0424           Node   240.61864 +/- 0.14
e   0.5152793 +/- 0.00753           Incl.   27.05912 +/- 0.40
P   4.08                   H 20.4   G  0.15   U  9.3
q 1.23789973 +/- 0.00213    Q 3.86978296 +/- 0.0835
From 19 observations 2022 Nov. 24-28; mean residual 0".31
Residuals in arcseconds: 
221124 V00  .08+  .19+    221125 V00  .11-  .74-    221127 691  .00   .06-    
221124 V00  .09-  .32+    221126 H21  .09-  .44+    221127 691  .06+  .02-    
221124 V00  .01-  .15+    221126 H21  .08-  .26+    221128 291  .04+  .21-    
221124 V00  .14+  .24+    221127 033  .34+  .06+    221128 291  .08-  .52-    
221125 V00  .25+  .34-    221127 033  .08+  .08-    221128 291  .17-  .29+    
221125 V00  .21-  .47-    221127 033  .12+  .48+    
221125 V00  .24-  1.0-    221127 691  .06-  .40+    

Ephemerides (geocentric):
Date (UTC) HH   RA             Dec           delta  r     elong  mag " sig PA
---- --------  ------------   ------------  ------ ------ -----  --- --------
2022 11 28 16  05 09 32.410   +11 11 03.30  .81603 1.7848 163.8 21.9 .443 126
2022 11 28 17  05 09 28.460   +11 09 59.41  .81624 1.7851 163.8 21.9 .460 126
2022 11 28 18  05 09 24.512   +11 08 55.58  .81645 1.7854 163.9 21.9 .478 126
2022 11 28 19  05 09 20.564   +11 07 51.79  .81667 1.7856 163.9 21.9 .496 126
2022 11 28 20  05 09 16.617   +11 06 48.06  .81688 1.7859 163.9 21.9 .514 126
2022 11 28 21  05 09 12.671   +11 05 44.37  .81710 1.7862 163.9 21.9 .532 126
2022 11 28 22  05 09 08.727   +11 04 40.74  .81731 1.7864 164.0 21.9 .551 126
2022 11 28 23  05 09 04.783   +11 03 37.16  .81753 1.7867 164.0 21.9 .570 126
2022 11 29 00  05 09 00.840   +11 02 33.63  .81775 1.7870 164.0 21.9 .589 126
2022 11 29 01  05 08 56.899   +11 01 30.15  .81796 1.7872 164.1 21.9 .608 126
2022 11 29 02  05 08 52.958   +11 00 26.72  .81818 1.7875 164.1 21.9 .628 126
2022 11 29 03  05 08 49.019   +10 59 23.34  .81840 1.7878 164.1 21.9 .648 126
2022 11 29 04  05 08 45.081   +10 58 20.02  .81862 1.7880 164.1 21.9 .668 126
2022 11 29 05  05 08 41.143   +10 57 16.74  .81884 1.7883 164.2 21.9 .688 126
2022 11 29 06  05 08 37.207   +10 56 13.52  .81906 1.7886 164.2 21.9 .708 126
2022 11 29 07  05 08 33.273   +10 55 10.35  .81928 1.7888 164.2 21.9 .729 126
2022 11 29 08  05 08 29.339   +10 54 07.23  .81950 1.7891 164.3 21.9 .750 126
2022 11 29 09  05 08 25.406   +10 53 04.16  .81972 1.7894 164.3 21.9 .772 126
2022 11 29 10  05 08 21.475   +10 52 01.15  .81994 1.7896 164.3 21.9 .793 127
2022 11 29 11  05 08 17.544   +10 50 58.18  .82016 1.7899 164.3 21.9 .815 127
2022 11 29 12  05 08 13.615   +10 49 55.27  .82038 1.7902 164.4 21.9 .837 127
2022 11 29 13  05 08 09.687   +10 48 52.41  .82061 1.7905 164.4 21.9 .859 127
2022 11 29 14  05 08 05.761   +10 47 49.60  .82083 1.7907 164.4 21.9 .881 127
2022 11 29 15  05 08 01.835   +10 46 46.85  .82105 1.7910 164.4 21.9 .904 127
2022 11 29 16  05 07 57.911   +10 45 44.14  .82128 1.7913 164.5 21.9 .927 127
2022 11 29 17  05 07 53.988   +10 44 41.49  .82150 1.7915 164.5 21.9 .950 127
2022 11 29 18  05 07 50.066   +10 43 38.89  .82173 1.7918 164.5 21.9 .974 127
2022 11 29 19  05 07 46.146   +10 42 36.35  .82195 1.7921 164.5 21.9 1.00 127
2022 11 29 20  05 07 42.226   +10 41 33.85  .82218 1.7923 164.6 21.9 1.02 127
2022 11 29 21  05 07 38.308   +10 40 31.41  .82241 1.7926 164.6 21.9 1.05 127
2022 11 29 22  05 07 34.391   +10 39 29.02  .82264 1.7929 164.6 21.9 1.07 127
2022 11 29 23  05 07 30.476   +10 38 26.69  .82286 1.7931 164.6 21.9 1.09 127
2022 11 30 00  05 07 26.562   +10 37 24.41  .82309 1.7934 164.7 21.9 1.12 128
2022 11 30 01  05 07 22.649   +10 36 22.18  .82332 1.7937 164.7 21.9 1.14 128
2022 11 30 02  05 07 18.738   +10 35 20.00  .82355 1.7939 164.7 21.9 1.17 128
2022 11 30 03  05 07 14.827   +10 34 17.88  .82378 1.7942 164.7 21.9 1.19 128
2022 11 30 04  05 07 10.918   +10 33 15.81  .82401 1.7945 164.8 21.9 1.22 128
2022 11 30 05  05 07 07.011   +10 32 13.79  .82424 1.7947 164.8 21.9 1.25 128
2022 11 30 06  05 07 03.105   +10 31 11.83  .82447 1.7950 164.8 21.9 1.27 128
2022 11 30 07  05 06 59.200   +10 30 09.92  .82470 1.7953 164.8 21.9 1.30 128
2022 11 30 08  05 06 55.297   +10 29 08.06  .82494 1.7956 164.8 21.9 1.33 128
2022 11 30 09  05 06 51.395   +10 28 06.26  .82517 1.7958 164.9 21.9 1.35 128
2022 11 30 10  05 06 47.494   +10 27 04.51  .82540 1.7961 164.9 21.9 1.38 128
2022 11 30 11  05 06 43.595   +10 26 02.82  .82564 1.7964 164.9 21.9 1.41 128
2022 11 30 12  05 06 39.697   +10 25 01.17  .82587 1.7966 164.9 21.9 1.43 129
2022 11 30 13  05 06 35.801   +10 23 59.59  .82611 1.7969 165.0 21.9 1.46 129
2022 11 30 14  05 06 31.906   +10 22 58.05  .82634 1.7972 165.0 21.9 1.49 129
2022 11 30 15  05 06 28.012   +10 21 56.57  .82658 1.7974 165.0 21.9 1.52 129